﻿測定場所 (Monitoring sites),日付 (Measurement date),時間 (Measurement time),線量率 最大値 (max) μGy/h,線量率 最小値 (min) μGy/h,線量率 平均値 (average) μGy/h,
調布 (Chofu),2012-07-08,23:01～24:00,0.0399,0.0338,0.0358,
調布 (Chofu),2012-07-08,22:01～23:00,0.0384,0.0332,0.0359,
調布 (Chofu),2012-07-08,21:01～22:00,0.0389,0.0337,0.0359,
調布 (Chofu),2012-07-08,20:01～21:00,0.0385,0.0337,0.0359,
調布 (Chofu),2012-07-08,19:01～20:00,0.0388,0.0338,0.0362,
調布 (Chofu),2012-07-08,18:01～19:00,0.0381,0.0340,0.0361,
調布 (Chofu),2012-07-08,17:01～18:00,0.0388,0.0330,0.0362,
調布 (Chofu),2012-07-08,16:01～17:00,0.0388,0.0339,0.0362,
調布 (Chofu),2012-07-08,15:01～16:00,0.0387,0.0343,0.0363,
調布 (Chofu),2012-07-08,14:01～15:00,0.0399,0.0343,0.0365,
調布 (Chofu),2012-07-08,13:01～14:00,0.0386,0.0345,0.0366,
調布 (Chofu),2012-07-08,12:01～13:00,0.0402,0.0344,0.0367,
調布 (Chofu),2012-07-08,11:01～12:00,0.0396,0.0350,0.0371,
調布 (Chofu),2012-07-08,10:01～11:00,0.0416,0.0363,0.0385,
調布 (Chofu),2012-07-08,09:01～10:00,0.0427,0.0345,0.0390,
調布 (Chofu),2012-07-08,08:01～09:00,0.0397,0.0345,0.0368,
調布 (Chofu),2012-07-08,07:01～08:00,0.0407,0.0348,0.0370,
調布 (Chofu),2012-07-08,06:01～07:00,0.0396,0.0346,0.0364,
調布 (Chofu),2012-07-08,05:01～06:00,0.0410,0.0348,0.0369,
調布 (Chofu),2012-07-08,04:01～05:00,0.0397,0.0348,0.0372,
調布 (Chofu),2012-07-08,03:01～04:00,0.0413,0.0352,0.0374,
調布 (Chofu),2012-07-08,02:01～03:00,0.0407,0.0360,0.0379,
調布 (Chofu),2012-07-08,01:01～02:00,0.0401,0.0353,0.0370,
調布 (Chofu),2012-07-08,00:01～01:00,0.0398,0.0345,0.0364,
調布 (Chofu),2012-07-07,23:01～24:00,0.0401,0.0343,0.0369,
調布 (Chofu),2012-07-07,22:01～23:00,0.0402,0.0353,0.0373,
調布 (Chofu),2012-07-07,21:01～22:00,0.0445,0.0367,0.0406,
調布 (Chofu),2012-07-07,20:01～21:00,0.0572,0.0437,0.0499,
調布 (Chofu),2012-07-07,19:01～20:00,0.0603,0.0416,0.0514,
調布 (Chofu),2012-07-07,18:01～19:00,0.0460,0.0385,0.0426,
調布 (Chofu),2012-07-07,17:01～18:00,0.0536,0.0431,0.0480,
調布 (Chofu),2012-07-07,16:01～17:00,0.0581,0.0452,0.0518,
調布 (Chofu),2012-07-07,15:01～16:00,0.0496,0.0348,0.0390,
調布 (Chofu),2012-07-07,14:01～15:00,0.0398,0.0351,0.0368,
調布 (Chofu),2012-07-07,13:01～14:00,0.0406,0.0358,0.0375,
調布 (Chofu),2012-07-07,12:01～13:00,0.0408,0.0357,0.0376,
調布 (Chofu),2012-07-07,11:01～12:00,0.0415,0.0362,0.0385,
調布 (Chofu),2012-07-07,10:01～11:00,0.0429,0.0366,0.0396,
調布 (Chofu),2012-07-07,09:01～10:00,0.0418,0.0357,0.0391,
調布 (Chofu),2012-07-07,08:01～09:00,0.0447,0.0355,0.0406,
調布 (Chofu),2012-07-07,07:01～08:00,0.0447,0.0368,0.0409,
調布 (Chofu),2012-07-07,06:01～07:00,0.0470,0.0404,0.0431,
調布 (Chofu),2012-07-07,05:01～06:00,0.0456,0.0365,0.0407,
調布 (Chofu),2012-07-07,04:01～05:00,0.0448,0.0362,0.0398,
調布 (Chofu),2012-07-07,03:01～04:00,0.0420,0.0360,0.0383,
調布 (Chofu),2012-07-07,02:01～03:00,0.0453,0.0366,0.0404,
調布 (Chofu),2012-07-07,01:01～02:00,0.0529,0.0410,0.0474,
調布 (Chofu),2012-07-07,00:01～01:00,0.0528,0.0363,0.0433,
調布 (Chofu),2012-07-06,23:01～24:00,0.0450,0.0364,0.0403,
調布 (Chofu),2012-07-06,22:01～23:00,0.0462,0.0358,0.0414,
調布 (Chofu),2012-07-06,21:01～22:00,0.0429,0.0362,0.0387,
調布 (Chofu),2012-07-06,20:01～21:00,0.0453,0.0371,0.0412,
調布 (Chofu),2012-07-06,19:01～20:00,0.0436,0.0372,0.0402,
調布 (Chofu),2012-07-06,18:01～19:00,0.0422,0.0360,0.0389,
調布 (Chofu),2012-07-06,17:01～18:00,0.0404,0.0354,0.0373,
調布 (Chofu),2012-07-06,16:01～17:00,0.0409,0.0358,0.0375,
調布 (Chofu),2012-07-06,15:01～16:00,0.0414,0.0355,0.0381,
調布 (Chofu),2012-07-06,14:01～15:00,0.0405,0.0363,0.0382,
調布 (Chofu),2012-07-06,13:01～14:00,0.0401,0.0360,0.0377,
調布 (Chofu),2012-07-06,12:01～13:00,0.0407,0.0353,0.0371,
調布 (Chofu),2012-07-06,11:01～12:00,0.0401,0.0351,0.0368,
調布 (Chofu),2012-07-06,10:01～11:00,0.0402,0.0351,0.0370,
調布 (Chofu),2012-07-06,09:01～10:00,0.0426,0.0356,0.0373,
調布 (Chofu),2012-07-06,08:01～09:00,0.0418,0.0359,0.0388,
調布 (Chofu),2012-07-06,07:01～08:00,0.0478,0.0372,0.0418,
調布 (Chofu),2012-07-06,06:01～07:00,0.0563,0.0434,0.0503,
調布 (Chofu),2012-07-06,05:01～06:00,0.0629,0.0526,0.0585,
調布 (Chofu),2012-07-06,04:01～05:00,0.0593,0.0359,0.0426,
調布 (Chofu),2012-07-06,03:01～04:00,0.0416,0.0361,0.0379,
調布 (Chofu),2012-07-06,02:01～03:00,0.0403,0.0359,0.0375,
調布 (Chofu),2012-07-06,01:01～02:00,0.0412,0.0354,0.0375,
調布 (Chofu),2012-07-06,00:01～01:00,0.0424,0.0346,0.0378,
調布 (Chofu),2012-07-05,23:01～24:00,0.0413,0.0357,0.0384,
調布 (Chofu),2012-07-05,22:01～23:00,0.0411,0.0359,0.0378,
調布 (Chofu),2012-07-05,21:01～22:00,0.0410,0.0357,0.0378,
調布 (Chofu),2012-07-05,20:01～21:00,0.0428,0.0356,0.0381,
調布 (Chofu),2012-07-05,19:01～20:00,0.0414,0.0362,0.0380,
調布 (Chofu),2012-07-05,18:01～19:00,0.0426,0.0352,0.0380,
調布 (Chofu),2012-07-05,17:01～18:00,0.0409,0.0352,0.0380,
調布 (Chofu),2012-07-05,16:01～17:00,0.0399,0.0358,0.0376,
調布 (Chofu),2012-07-05,15:01～16:00,0.0415,0.0350,0.0379,
調布 (Chofu),2012-07-05,14:01～15:00,0.0413,0.0352,0.0377,
調布 (Chofu),2012-07-05,13:01～14:00,0.0406,0.0356,0.0375,
調布 (Chofu),2012-07-05,12:01～13:00,0.0407,0.0360,0.0378,
調布 (Chofu),2012-07-05,11:01～12:00,0.0412,0.0348,0.0377,
調布 (Chofu),2012-07-05,10:01～11:00,0.0404,0.0361,0.0377,
調布 (Chofu),2012-07-05,09:01～10:00,0.0411,0.0349,0.0372,
調布 (Chofu),2012-07-05,08:01～09:00,0.0407,0.0354,0.0373,
調布 (Chofu),2012-07-05,07:01～08:00,0.0407,0.0354,0.0372,
調布 (Chofu),2012-07-05,06:01～07:00,0.0411,0.0353,0.0373,
調布 (Chofu),2012-07-05,05:01～06:00,0.0416,0.0351,0.0375,
調布 (Chofu),2012-07-05,04:01～05:00,0.0399,0.0350,0.0373,
調布 (Chofu),2012-07-05,03:01～04:00,0.0398,0.0353,0.0373,
調布 (Chofu),2012-07-05,02:01～03:00,0.0400,0.0354,0.0371,
調布 (Chofu),2012-07-05,01:01～02:00,0.0418,0.0357,0.0374,
調布 (Chofu),2012-07-05,00:01～01:00,0.0406,0.0358,0.0375,
調布 (Chofu),2012-07-04,23:01～24:00,0.0413,0.0353,0.0376,
調布 (Chofu),2012-07-04,22:01～23:00,0.0412,0.0339,0.0374,
調布 (Chofu),2012-07-04,21:01～22:00,0.0401,0.0350,0.0372,
調布 (Chofu),2012-07-04,20:01～21:00,0.0403,0.0344,0.0370,
調布 (Chofu),2012-07-04,19:01～20:00,0.0417,0.0357,0.0372,
調布 (Chofu),2012-07-04,18:01～19:00,0.0404,0.0353,0.0371,
調布 (Chofu),2012-07-04,17:01～18:00,0.0392,0.0352,0.0371,
調布 (Chofu),2012-07-04,16:01～17:00,0.0407,0.0345,0.0368,
調布 (Chofu),2012-07-04,15:01～16:00,0.0398,0.0352,0.0371,
調布 (Chofu),2012-07-04,14:01～15:00,0.0404,0.0348,0.0368,
調布 (Chofu),2012-07-04,13:01～14:00,0.0397,0.0351,0.0370,
調布 (Chofu),2012-07-04,12:01～13:00,0.0393,0.0346,0.0367,
調布 (Chofu),2012-07-04,11:01～12:00,0.0392,0.0349,0.0369,
調布 (Chofu),2012-07-04,10:01～11:00,0.0407,0.0349,0.0367,
調布 (Chofu),2012-07-04,09:01～10:00,0.0398,0.0348,0.0365,
調布 (Chofu),2012-07-04,08:01～09:00,0.0393,0.0348,0.0366,
調布 (Chofu),2012-07-04,07:01～08:00,0.0407,0.0349,0.0368,
調布 (Chofu),2012-07-04,06:01～07:00,0.0421,0.0344,0.0372,
調布 (Chofu),2012-07-04,05:01～06:00,0.0422,0.0361,0.0386,
調布 (Chofu),2012-07-04,04:01～05:00,0.0432,0.0351,0.0381,
調布 (Chofu),2012-07-04,03:01～04:00,0.0396,0.0348,0.0369,
調布 (Chofu),2012-07-04,02:01～03:00,0.0410,0.0358,0.0379,
調布 (Chofu),2012-07-04,01:01～02:00,0.0435,0.0367,0.0404,
調布 (Chofu),2012-07-04,00:01～01:00,0.0432,0.0357,0.0397,
調布 (Chofu),2012-07-03,23:01～24:00,0.0419,0.0344,0.0371,
調布 (Chofu),2012-07-03,22:01～23:00,0.0399,0.0342,0.0364,
調布 (Chofu),2012-07-03,21:01～22:00,0.0392,0.0345,0.0364,
調布 (Chofu),2012-07-03,20:01～21:00,0.0413,0.0353,0.0375,
調布 (Chofu),2012-07-03,19:01～20:00,0.0475,0.0357,0.0411,
調布 (Chofu),2012-07-03,18:01～19:00,0.0504,0.0422,0.0465,
調布 (Chofu),2012-07-03,17:01～18:00,0.0499,0.0427,0.0468,
調布 (Chofu),2012-07-03,16:01～17:00,0.0494,0.0404,0.0441,
調布 (Chofu),2012-07-03,15:01～16:00,0.0524,0.0422,0.0479,
調布 (Chofu),2012-07-03,14:01～15:00,0.0488,0.0361,0.0420,
調布 (Chofu),2012-07-03,13:01～14:00,0.0423,0.0360,0.0393,
調布 (Chofu),2012-07-03,12:01～13:00,0.0402,0.0340,0.0370,
調布 (Chofu),2012-07-03,11:01～12:00,0.0393,0.0344,0.0371,
調布 (Chofu),2012-07-03,10:01～11:00,0.0402,0.0350,0.0369,
調布 (Chofu),2012-07-03,09:01～10:00,0.0395,0.0351,0.0368,
調布 (Chofu),2012-07-03,08:01～09:00,0.0393,0.0347,0.0367,
調布 (Chofu),2012-07-03,07:01～08:00,0.0396,0.0346,0.0366,
調布 (Chofu),2012-07-03,06:01～07:00,0.0391,0.0347,0.0369,
調布 (Chofu),2012-07-03,05:01～06:00,0.0399,0.0350,0.0368,
調布 (Chofu),2012-07-03,04:01～05:00,0.0389,0.0349,0.0366,
調布 (Chofu),2012-07-03,03:01～04:00,0.0405,0.0349,0.0366,
調布 (Chofu),2012-07-03,02:01～03:00,0.0388,0.0345,0.0366,
調布 (Chofu),2012-07-03,01:01～02:00,0.0397,0.0351,0.0366,
調布 (Chofu),2012-07-03,00:01～01:00,0.0403,0.0347,0.0366,
調布 (Chofu),2012-07-02,23:01～24:00,0.0397,0.0344,0.0364,
調布 (Chofu),2012-07-02,22:01～23:00,0.0400,0.0345,0.0367,
調布 (Chofu),2012-07-02,21:01～22:00,0.0385,0.0342,0.0364,
調布 (Chofu),2012-07-02,20:01～21:00,0.0393,0.0339,0.0363,
調布 (Chofu),2012-07-02,19:01～20:00,0.0397,0.0348,0.0365,
調布 (Chofu),2012-07-02,18:01～19:00,0.0399,0.0347,0.0367,
調布 (Chofu),2012-07-02,17:01～18:00,0.0408,0.0344,0.0370,
調布 (Chofu),2012-07-02,16:01～17:00,0.0396,0.0353,0.0370,
調布 (Chofu),2012-07-02,15:01～16:00,0.0396,0.0352,0.0370,
調布 (Chofu),2012-07-02,14:01～15:00,0.0406,0.0348,0.0371,
調布 (Chofu),2012-07-02,13:01～14:00,0.0399,0.0348,0.0367,
調布 (Chofu),2012-07-02,12:01～13:00,0.0395,0.0352,0.0368,
調布 (Chofu),2012-07-02,11:01～12:00,0.0403,0.0338,0.0366,
調布 (Chofu),2012-07-02,10:01～11:00,0.0395,0.0347,0.0367,
調布 (Chofu),2012-07-02,09:01～10:00,0.0398,0.0346,0.0368,
調布 (Chofu),2012-07-02,08:01～09:00,0.0391,0.0350,0.0366,
調布 (Chofu),2012-07-02,07:01～08:00,0.0392,0.0348,0.0365,
調布 (Chofu),2012-07-02,06:01～07:00,0.0409,0.0352,0.0370,
調布 (Chofu),2012-07-02,05:01～06:00,0.0405,0.0351,0.0370,
調布 (Chofu),2012-07-02,04:01～05:00,0.0402,0.0357,0.0375,
調布 (Chofu),2012-07-02,03:01～04:00,0.0402,0.0358,0.0380,
調布 (Chofu),2012-07-02,02:01～03:00,0.0435,0.0367,0.0394,
調布 (Chofu),2012-07-02,01:01～02:00,0.0440,0.0382,0.0409,
調布 (Chofu),2012-07-02,00:01～01:00,0.0446,0.0383,0.0418,
